User: anonymous   Login
Location: Unspecified
(0.0000°N, 0.0000°E)
Time: 10:35:36
(UTC+01:00)
Language:

Meteor PRIRODA - Orbit

View from above orbital plane
View from above orbital plane
View from above satellite
View from above satellite

Ground track
Ground track

The orbit data is extracted from the following two-line orbital elements,

1 12585U 81065A   14304.08293397  .00006876  00000-0  36843-3 0  9404
2 12585 097.3296 290.5074 0017853 147.6718 254.5815 15.15169425816569
Epoch (UTC): 31 October 2014 01:59:25
Eccentricity: 0.0017853
inclination: 97.3296°
perigee height: 508 km
apogee height: 533 km
right ascension of ascending node: 290.5074°
argument of perigee: 147.6718°
revolutions per day: 15.15169425
mean anomaly at epoch: 254.5815°
orbit number at epoch: 81656

The dashed part of the orbit path shows where the satellite is in the earth's shadow,  

DLR